Regional Weather Roundup
Issued by NWS

Home | Current Version | Previous Version | Text Only | Print | Product List | Glossary Off
Versions: 1 2 3 4 5 6 7 8 9 10 11 12 13 14 15 16 17 18 19 20 21 22 23 24 25 26 27 28 29 30 31 32 33 34 35 36 37 38 39 40 41 42 43 44 45 46 47 48 49 50

000
ASUS43 KMKX 040910
RWRWI

WISCONSIN REGIONAL WEATHER ROUNDUP
NATIONAL WEATHER SERVICE MILWAUKEE/SULLIVAN WI
300 AM CST WED MAR 04 2015

NOTE: "FAIR" INDICATES FEW OR NO CLOUDS BELOW 12,000 FEET WITH NO
SIGNIFICANT WEATHER AND/OR OBSTRUCTIONS TO VISIBILITY.

WIZ001-002-006>008-014>016-023>028-041000-
NORTHWEST WISCONSIN

CITY           SKY/WX    TMP DP  RH WIND       PRES   REMARKS
SUPERIOR ARPT  CLEAR     -1 -10  66 SW7       30.01R WCI -14
ASHLAND        CLOUDY     1  -5  75 W10       29.95R WCI -15
HAYWARD        CLEAR     -1 -11  62 W8        29.95R WCI -15
SIREN          PTCLDY     0  -7  74 W6        30.02R WCI -12
CUMBERLAND     CLEAR      0  -8  71 W10       29.98R WCI -17
RICE LAKE      CLEAR      1  -6  71 W6        30.01R WCI -10
CHETEK         CLEAR      2  -5  72 W7        30.00R WCI -11
LADYSMITH      CLEAR      3  -6  65 W13       29.96R WCI -14
EAU CLAIRE     CLEAR      4  -7  60 W13       30.02R WCI -13
MENOMONIE      CLEAR      5  -4  66 W15       30.03S WCI -13
NEW RICHMOND   CLEAR      2  -6  69 W13       30.04S WCI -16
OSCEOLA        CLEAR      1  -6  72 W9        30.09R WCI -14
$$

WIZ003>005-009-010-017-018-041000-
NORTH CENTRAL WISCONSIN

CITY           SKY/WX    TMP DP  RH WIND       PRES   REMARKS
MANITOWISH WTR CLEAR      0  -7  71 W9        29.83S WCI -15
ARBOR VITAE    PTCLDY     4  -5  66 NW5       29.83R WCI  -5
WOODRUFF       PTCLDY     4  -5  66 NW5       29.83R WCI  -5
RHINELANDER    PTCLDY     4  -5  66 W13       29.83R WCI -13
EAGLE RIVER    CLEAR      3  -6  64 W12G21    29.81R WCI -13
LAND O LAKES   FAIR       4  -2  76 W7        29.80R WCI  -8
PHILLIPS       CLEAR      1  -7  68 W7        29.88R WCI -11
TOMAHAWK       PTCLDY     4  -3  71 W9        29.86R WCI -10
MEDFORD        CLEAR      3  -6  66 W13       29.88S WCI -14
MERRILL        MOCLDY     8  -1  67 W5        29.87R WCI  -1
$$

WIZ029-030-035-036-043>047-041000-
CENTRAL WISCONSIN

CITY           SKY/WX    TMP DP  RH WIND       PRES   REMARKS
WAUSAU         CLEAR      8  -1  66 NW13      29.87R WCI  -8
MOSINEE        CLEAR      9   1  72 W14G21    29.89S WCI  -8
MARSHFIELD     CLEAR      6  -4  63 W13       29.92R WCI -10
STEVENS POINT  CLEAR      8  -1  68 W9        29.92R WCI  -6
WAUPACA        CLEAR     15   4  62 W9G18     29.92R WCI   3
WAUTOMA        CLEAR     12   3  67 W13G20    29.94R WCI  -3
WISC RAPIDS    CLEAR      9  -1  64 NW15G23   29.95R WCI  -8
CAMP DOUGLAS   CLEAR     10   2  70 W18       29.96R WCI  -8
$$

WIZ011>013-019>022-031-037>040-048>050-041000-
NORTHEAST WISCONSIN

CITY           SKY/WX    TMP DP  RH WIND       PRES   REMARKS
ANTIGO         CLEAR      6  -1  71 NW16G23   29.83R WCI -12
SHAWANO        CLEAR     16   2  53 NW14      29.88R WCI   2
OCONTO         CLEAR     15   4  61 NW9       29.86R WCI   3
STURGEON BAY   FAIR      16   3  57 NW13      29.85R WCI   2
GREEN BAY      CLEAR     15   5  64 W7        29.87R WCI   5
MANITOWOC      CLEAR     18   8  65 W8        29.87R WCI   8
APPLETON       CLEAR     14   5  67 W17       29.88R WCI  -3
CLINTONVILLE   CLEAR     16   5  62 W10       29.88R WCI   3
OSHKOSH        CLEAR     16   6  65 W12       29.90R WCI   3
$$

WIZ032>034-041-042-053>061-041000-
SOUTHWEST WISCONSIN

CITY           SKY/WX    TMP DP  RH WIND       PRES   REMARKS
LA CROSSE      CLEAR     10   0  63 NW13      30.04S WCI  -5
SPARTA         CLEAR     10   0  61 W14G21    30.01S WCI  -5
VIROQUA        CLEAR      7   0  73 NW12      29.96S WCI  -9
BOSCOBEL       CLEAR     12   1  61 VRB6      30.02S WCI   3
PRAIRIE DU CHI PTCLDY    11   1  63 NW16G24   30.04S WCI  -6
PLATTEVILLE    CLEAR     11   5  78 W8        29.98S WCI  -1
$$

WIZ056-057-062-063-064-067-068-041000-
SOUTH CENTRAL WISCONSIN

CITY           SKY/WX    TMP DP  RH WIND       PRES   REMARKS
REEDSBURG      CLEAR     12   5  73 W9        29.95S WCI  -1
BARABOO/DELLS  CLEAR     12   5  73 W10       29.94R WCI  -1
LONE ROCK      CLEAR     13   3  64 NW13      29.99R WCI  -2
MINERAL POINT  CLEAR     14   7  73 NW7       29.95S WCI   4
MADISON        CLEAR     16   7  67 NW10G18   29.94R WCI   4
MIDDLETON      PTCLDY    17   8  70 NW10      29.95R WCI   4
WATERTOWN      CLEAR     18   9  69 NW10G16   29.91R WCI   6
MONROE         CLEAR     14  10  85 W15G21    29.93R WCI  -1
JANESVILLE     CLEAR     19  12  73 W10       29.93R WCI   8
$$

WIZ051-052-058>065-066-070>072-041000-
SOUTHEAST WISCONSIN

CITY           SKY/WX    TMP DP  RH WIND       PRES   REMARKS
MILWAUKEE      PTCLDY    24  12  60 NW16G26   29.88R WCI  11
WAUKESHA       CLOUDY    21  12  68 W17       29.90R WCI   7
MILWAUKEE/TIMM CLEAR     21  10  63 NW15      29.90R WCI   8
RACINE         PTCLDY    26  16  65 NW7       29.89R WCI  18
BURLINGTON     MOCLDY    22  15  74 NW17G23   29.90R WCI   7
KENOSHA        MOCLDY    22  17  81 W7        29.88R WCI  13
FOND DU LAC    CLEAR     17   6  62 NW15      29.90R WCI   2
SHEBOYGAN      CLEAR     19   7  59 W13G21    29.88R WCI   6
WEST BEND      CLEAR     19  10  68 W10       29.88R WCI   8
JUNEAU         CLEAR     16   7  67 W10G16    29.92R WCI   3
$$

LSZ147-162-041000-
LAKE SUPERIOR

STATION/POSITION TIME  TEMP    WIND        PRES    WAVE
                       AIR SEA DIR/SP/G            HT/PER
                 (UTC) (F)     (DEG/KT/KT) (MB)    (FT/S)
DEVILS ISLAND    0900    5     280/ 23/ 28 1014.8R
PORT WING        0809    5     280/ 20/ 27 1014.6R
SAXON HARBOR     0800    6     240/  4/  9 1013.5R
$$

LMZ867-665-643>646-041000-
LAKE MICHIGAN

STATION/POSITION TIME  TEMP    WIND        PRES    WAVE
                       AIR SEA DIR/SP/G            HT/PER
                 (UTC) (F)     (DEG/KT/KT) (MB)    (FT/S)
NORTHPORT PIER   0803   19     280/  5/ 15 1009.1R
SISTER BAY       0813   13     310/ 11/ 12   N/A
KEWAUNEE LAKESHO 0800   22     300/ 10/ 16 1009.2R
SHEBOYGAN LAKESH 0900   21     280/ 11/ 15 1013.2R
PORT WASHINGTON  0700   27     280/  5/  9 1011.5R
MILWAUKEE LAKESH 0800   28     310/ 11/ 17   N/A
KENOSHA   LAKESH 0900   26     290/  3/  4 1012.2R
$$

TC  - TEMPERATURE IN CELSIUS
VSB - VISIBILITY IN STATUTE MILES
WCI - WIND CHILL INDEX
HX  - HEAT INDEX




USA.gov is the U.S. government's official web portal to all federal, state and local government web resources and services.